Sisseton, SD

9:23 AM CDT on March 26, 2017 (GMT -0500)
Sisseton

Weather History for K8D3 - April, 2013

Change the Weather History Date:

Tuesday, April 2, 2013

  Actual Average Record
Temperature  
Mean Temperature 23 °F 38 °F  
Max Temperature 32 °F 49 °F 73 °F (1991)
Min Temperature 13 °F 27 °F 4 °F (1975)
Degree Days  
Heating Degree Days 42 27  
Month to date heating degree days 85 55  
Since 1 July heating degree days 7913 7397  
Cooling Degree Days 0 0  
Month to date cooling degree days 0 0  
Year to date cooling degree days 0 0  
Moisture  
Dew Point 16 °F    
Average Humidity 75    
Maximum Humidity 96    
Minimum Humidity 53    
Precipitation  
Precipitation 0.00 in 0.04 in 0.71 in (1905)
Month to date precipitation 0.00 0.06  
Year to date precipitation 3.35 2.04  
Snow  
Snow 0.00 in - - ()
Month to date snowfall 0.0  
Since 1 July snowfall 42.1  
Snow Depth -    
Sea Level Pressure  
Sea Level Pressure 30.40 in    
Wind  
Wind Speed 3 mph (East)    
Max Wind Speed 9 mph    
Max Gust Speed 12 mph    
T = Trace of Precipitation, MM = Missing Value Source: NWS Daily Summary

Daily Weather History Graph

Daily Weather History Graph

Search for Another Location

Airport or City:

Trip Planner

Search our weather history database for the weather conditions in past years. The results will help you decide how hot, cold, wet, or windy it might be!

Date:

Astronomy

Apr. 02, 2013 Rise Set
Actual Time 7:05 AM CDT 7:57 PM CDT
Civil Twilight 6:35 AM CDT 8:28 PM CDT
Nautical Twilight 5:59 AM CDT 9:04 PM CDT
Astronomical Twilight 5:22 AM CDT 9:41 PM CDT
Moon 2:16 AM CDT (4/2) 11:45 AM CDT (4/2)
Length of Visible Light 13h 52m
Length of Day
12h 52m
Waning Gibbous, 55% of the Moon is Illuminated
Apr 2
Waning Gibbous
Apr 2
Last Quarter
Apr 10
New
Apr 18
First Quarter
Apr 25
Full

Hourly Weather History & Observations

Time (CDT) Temp. Windchill Dew Point Humidity Pressure Visibility Wind Dir Wind Speed Gust Speed Precip Events Conditions
12:56 AM 18.0 °F - 14.0 °F 84% 30.35 in - Calm Calm - N/A   Unknown
1:56 AM 18.0 °F - 14.0 °F 84% 30.35 in - Calm Calm - N/A   Unknown
2:56 AM 17.1 °F 11.7 °F 14.0 °F 88% 30.35 in - West 3.5 mph - N/A   Unknown
3:56 AM 15.1 °F - 12.9 °F 91% 30.35 in - Calm Calm - N/A   Unknown
4:56 AM 14.0 °F - 12.0 °F 92% 30.35 in - Calm Calm - N/A   Unknown
5:56 AM 14.0 °F - 12.0 °F 92% 30.36 in - Calm Calm - N/A   Unknown
6:56 AM 14.0 °F 8.2 °F 10.9 °F 88% 30.38 in - West 3.5 mph - N/A   Unknown
7:56 AM 17.1 °F - 14.0 °F 88% 30.41 in - Calm Calm - N/A   Unknown
8:56 AM 21.0 °F - 18.0 °F 88% 30.42 in - Calm Calm - N/A   Unknown
9:56 AM 25.0 °F - 16.0 °F 69% 30.43 in - Calm Calm - N/A   Unknown
10:56 AM 26.1 °F 21.9 °F 16.0 °F 66% 30.43 in - NNE 3.5 mph - N/A   Unknown
11:56 AM 28.0 °F - 17.1 °F 63% 30.43 in - Calm Calm - N/A   Unknown
12:56 PM 30.0 °F - 19.0 °F 64% 30.43 in - Calm Calm - N/A   Unknown
1:56 PM 30.9 °F 24.3 °F 18.0 °F 59% 30.43 in - ENE 6.9 mph - N/A   Unknown
2:56 PM 30.0 °F 24.1 °F 15.1 °F 54% 30.42 in - East 5.8 mph - N/A   Unknown
3:56 PM 30.0 °F 24.1 °F 16.0 °F 56% 30.42 in - East 5.8 mph - N/A   Unknown
4:56 PM 30.0 °F 23.2 °F 16.0 °F 56% 30.42 in - East 6.9 mph - N/A   Unknown
5:56 PM 30.0 °F 22.4 °F 16.0 °F 56% 30.42 in - East 8.1 mph - N/A   Unknown
6:56 PM 28.0 °F 21.7 °F 17.1 °F 63% 30.42 in - East 5.8 mph - N/A   Unknown
7:56 PM 26.1 °F 21.9 °F 18.0 °F 71% 30.42 in - East 3.5 mph - N/A   Unknown
8:56 PM 23.0 °F 17.0 °F 18.0 °F 81% 30.42 in - SE 4.6 mph - N/A   Unknown
9:56 PM 23.0 °F 18.4 °F 19.0 °F 85% 30.42 in - SE 3.5 mph - N/A   Unknown
10:56 PM 21.9 °F 17.2 °F 18.0 °F 85% 30.41 in - SE 3.5 mph - N/A   Unknown
11:56 PM 19.9 °F - 17.1 °F 89% 30.41 in - Calm Calm - N/A   Unknown